Weather in Shuyskaya Chupa

Russia / Republic of Karelia     61°58′18″N   34°12′01″E
temp.,
°C
wind,
m/s
gust,
m/s
humid.,
%
clouds,
%
prec.,
mm/h
press.,
hPa
HPBL,
m
2 march, tue
tue200:00+1wnw5148579 0.1 1002812
03:00−2wnw5148540 0.1 1003671
06:00−2wnw5148513 0.0 1002804
09:00−3wnw4138623 0.0 1004778
12:00−1nw6117755 0.0 10061480
15:00−2nw5117631 0.1 10081410
18:00−5nw3128235 0.0 1010524
21:00−7wnw3118517 0.0 1012298
3 march, wed
wed300:00−6w4108933 0.0 1011305
03:00−6w4119231 0.0 1011389
06:00−5w4129171 0.0 1009505
09:00−4wnw4119167 0.0 1009496
12:00−2wnw598863 0.0 1008769
15:00−1w5108876 0.0 1007735
18:00−2wsw4109298 0.0 1003442
21:00−2ssw499799 0.8 999524
4 march, thu
thu400:000wsw51293100 2.3 993913
03:00−2wnw6138398 2.3 991903
06:00−5wnw5119384 0.1 991647
09:00−5nnw6129392 0.8 992805
12:00−6nnw51187100 0.1 995672
15:00−5nnw4788100 0.1 998722
18:00−8nw249392 0.0 99984
21:00−8wnw239795 0.1 100176
5 march, fri
fri500:00−8nw3895100 0.3 1001315
03:00−11nw239697 0.3 100280
06:00−13wnw229597 0.0 100339
09:00−13nw269686 0.0 1005201
12:00−11n469297 0.1 1007516
15:00−11n368898 0.1 1009634
18:00−14nnw229395 0.0 101126
21:00−17nw229557 0.0 101220
6 march, sat
sat600:00−18w12960 0.0 101320
03:00−18wsw22960 0.0 101224
06:00−17wsw389548 0.0 1011174
09:00−13w489371 0.0 1010315
12:00−10wsw379382 0.0 1009384
15:00−7wsw479190 0.1 1007646
18:00−8sw3992100 0.1 1005523
21:00−10sw31192100 0.1 1003382